User: anonymous   Login
Location: Unspecified
(0.0000°N, 0.0000°E)
Time: 13:02:36
(UTC+00:00)
Language:

NAVSTAR 64 (USA 206) - Orbit

View from above orbital plane
View from above orbital plane
View from above satellite
View from above satellite

Ground track
Ground track

The orbit data is extracted from the following two-line orbital elements,

1 35752U 09043A   16178.48723756  .00000090  00000-0  00000+0 0  9991
2 35752  54.2279 173.9385 0044565  23.3053 334.7174  2.00578615 50276
Epoch (UTC): 26 June 2016 11:41:37
Eccentricity: 0.0044565
inclination: 54.2279°
perigee height: 20062 km
apogee height: 20299 km
right ascension of ascending node: 173.9385°
argument of perigee: 23.3053°
revolutions per day: 2.00578615
mean anomaly at epoch: 334.7174°
orbit number at epoch: 5027

The dashed part of the orbit path shows where the satellite is in the earth's shadow,  

DLR